Cosmos 1005 Rocket - Orbit

View from above orbital plane
View from above orbital plane
View from above satellite
View from above satellite

Ground track
Ground track

The orbit data is extracted from the following two-line orbital elements,

1 10861U 78045B   13142.50634456  .00053514  00000-0  41828-3 0  2878
2 10861 081.1890 137.4077 0006311 007.1166 353.0181 15.71393909927147
Epoch (UTC): 22 May 2013 12:09:08
Eccentricity: 0.0006311
inclination: 81.1890°
perigee height: 350 km
apogee height: 359 km
right ascension of ascending node: 137.4077°
argument of perigee: 7.1166°
revolutions per day: 15.71393909
mean anomaly at epoch: 353.0181°
orbit number at epoch: 92714

The dashed part of the orbit path shows where the satellite is in the earth's shadow,  

Developed and maintained by Chris Peat, Heavens-Above GmbH. Please read the updated FAQ before sending e-mail. Imprint. DLR